Regional Weather Roundup
Issued by NWS

Home | Current Version | Previous Version | Graphics & Text | Print | Product List | Glossary On
Versions: 1 2 3 4 5 6 7 8 9 10 11 12 13 14 15 16 17 18 19 20 21 22 23 24 25 26 27 28 29 30 31 32 33 34 35 36 37 38 39 40 41 42 43 44 45 46 47 48 49 50
000
ASUS43 KIND 221059
RWRIN

WEATHER ROUNDUP FOR INDIANA
NATIONAL WEATHER SERVICE INDIANAPOLIS IN
700 AM EDT TUE JUL 22 2014

NOTE: "FAIR" INDICATES FEW OR NO CLOUDS BELOW 12,000 FEET WITH NO
SIGNIFICANT WEATHER AND/OR OBSTRUCTIONS TO VISIBILITY.

* - STATION DOES NOT REPORT WEATHER SUCH AS PRECIPITATION OR FOG.

+ - STATION NOT QUALITY CONTROLLED BY THE NATIONAL WEATHER SERVICE.
    USE DATA WITH CAUTION...ESPECIALLY DEWPOINT AND RELATIVE
    HUMIDITY OBSERVATIONS.

INZ001>003-010>013-019-020-221200-
NORTHWEST INDIANA

CITY           SKY/WX    TMP DP  RH WIND       PRES   REMARKS
GARY /AIRPORT/ CLEAR     70  64  83 S6        30.07S
VALPARAISO     CLEAR     64  62  93 CALM      30.09R FOG

$$

LMZ046-743>745-221200-
SOUTHERN LAKE MICHIGAN

STATION/POSITION TIME  TEMP WIND        PRES
                       AIR  DIR/SP/G
                 (UTC) (F)  (DEG/KT/KT) (MB)
BURNS HARBOR     1000   69  190/  8/ 10 1018.6R
MICHIGAN CITY    1000   71  150/ 10/ 13   N/A

$$

INZ004-005-014>016-021>024-221200-
NORTH CENTRAL INDIANA

CITY           SKY/WX    TMP DP  RH WIND       PRES   REMARKS
ELKHART        CLEAR     64  63  94 CALM      30.09  FOG
GOSHEN         CLEAR     64  61  90 SE3       30.10S
SOUTH BEND     CLEAR     69  62  78 S5        30.10R

$$

INZ006>009-017-018-025>027-221200-
NORTHEAST INDIANA

CITY           SKY/WX    TMP DP  RH WIND       PRES   REMARKS
ANGOLA *+      CLEAR     63  61  94 CALM      30.12R
FORT WAYNE     CLEAR     63  60  90 CALM      30.12S

$$

INZ028-029-035-036-043>045-051>053-221200-
WEST CENTRAL INDIANA

CITY           SKY/WX    TMP DP  RH WIND       PRES   REMARKS
GREENCASTLE +  CLEAR     61  61 100 CALM      30.12S FOG
LAFAYETTE      CLEAR     63  62  97 CALM      30.10S FOG
TERRE HAUTE    FOG       62  60  93 CALM      30.11S VSB 1/4

$$

INZ030>032-037>040-046>048-054>057-064-065-221200-
CENTRAL INDIANA

CITY           SKY/WX    TMP DP  RH WIND       PRES   REMARKS
COLUMBUS       FOG       61  61 100 CALM      30.12  VSB 3/4
INDIANAPOLIS   CLEAR     69  63  81 CALM      30.11S FOG
-EAGLE CREEK   CLEAR     66  63  90 CALM      30.12S FOG
KOKOMO *+      CLEAR     61  61 100 S5        30.11F
MT COMFORT *+  CLEAR     59 N/A N/A CALM      30.13S
SHELBYVILLE    CLEAR     63  59  87 CALM      30.12R FOG

$$

INZ033-034-041-042-049-050-058-059-221200-
EAST CENTRAL INDIANA

CITY           SKY/WX    TMP DP  RH WIND       PRES   REMARKS
MUNCIE         PTCLDY    64  60  87 CALM      30.13S

$$

INZ060-061-067>069-081>083-085>088-221200-
SOUTHWEST INDIANA

CITY           SKY/WX    TMP DP  RH WIND       PRES   REMARKS
EVANSVILLE     CLEAR     69  65  86 CALM      30.11R FOG
HUNTINGBURG *+   N/A     64  63  94 CALM      30.11R VSB 1/2

$$

INZ062-063-066-070>080-084-089>092-221200-
SOUTH CENTRAL AND SOUTHEAST INDIANA

CITY           SKY/WX    TMP DP  RH WIND       PRES   REMARKS
BLOOMINGTON    CLEAR     62  60  93 CALM      30.11S FOG

$$



USA.gov is the U.S. government's official web portal to all federal, state and local government web resources and services.